When you browse on this site, cookies collect data to enhance your experience and personalize the content and advertising you see.
Visit our Privacy Policy to learn more. By continuing to use the site, you agree to this use of cookies and data.
  • In Schweiz
  • Länderverzeichnis
  • Für 7 Tage
  • Wassertemperatur
  • Wetterkarte
  • Widgets
  • user-avatar
    Anmelden

    Stündliche Wetter Bedford

    Heute, 17 September, Dienstag

    Zeit Temperatur Niederschläge Wind Luftdruck Luftfeuchtigkeit
    00:00 +11°C° 0 mm 3 m/S 765 mmHg 81%
    01:00 +11°C° 0 mm 3 m/S 765 mmHg 84%
    02:00 +10°C° 0 mm 2 m/S 765 mmHg 87%
    03:00 +9°C° 0 mm 2 m/S 764 mmHg 89%
    04:00 +9°C° 0 mm 2 m/S 765 mmHg 90%
    05:00 +9°C° 0 mm 2 m/S 765 mmHg 91%
    06:00 +9°C° 0 mm 2 m/S 765 mmHg 92%
    07:00 +10°C° 0 mm 2 m/S 765 mmHg 85%
    08:00 +13°C° 0 mm 2 m/S 766 mmHg 77%
    09:00 +13°C° 0 mm 3 m/S 766 mmHg 70%
    10:00 +14°C° 0 mm 3 m/S 766 mmHg 65%
    11:00 +16°C° 0 mm 3 m/S 766 mmHg 60%
    12:00 +17°C° 0 mm 4 m/S 766 mmHg 55%
    13:00 +17°C° 0 mm 4 m/S 766 mmHg 53%
    14:00 +17°C° 0 mm 4 m/S 766 mmHg 52%
    15:00 +18°C° 0 mm 4 m/S 766 mmHg 50%
    16:00 +15°C° 0 mm 4 m/S 766 mmHg 55%
    17:00 +14°C° 0 mm 4 m/S 766 mmHg 61%
    18:00 +12°C° 0 mm 4 m/S 767 mmHg 66%
    19:00 +11°C° 0 mm 3 m/S 767 mmHg 69%
    20:00 +10°C° 0 mm 3 m/S 768 mmHg 72%
    21:00 +9°C° 0 mm 2 m/S 768 mmHg 75%
    22:00 +9°C° 0 mm 2 m/S 768 mmHg 77%
    23:00 +8°C° 0 mm 2 m/S 769 mmHg 79%

    Morgen, 18 September, Mittwoch

    Zeit Temperatur Niederschläge Wind Luftdruck Luftfeuchtigkeit
    00:00 +9°C° 0 mm 1 m/S 769 mmHg 81%
    01:00 +9°C° 0 mm 1 m/S 769 mmHg 82%
    02:00 +8°C° 0 mm 1 m/S 769 mmHg 83%
    03:00 +8°C° 0 mm 1 m/S 769 mmHg 84%
    04:00 +8°C° 0 mm 1 m/S 769 mmHg 84%
    05:00 +8°C° 0 mm 1 m/S 769 mmHg 84%
    06:00 +8°C° 0 mm 1 m/S 769 mmHg 84%
    07:00 +10°C° 0 mm 1 m/S 770 mmHg 77%
    08:00 +11°C° 0 mm 1 m/S 770 mmHg 70%
    09:00 +13°C° 0 mm 1 m/S 770 mmHg 63%
    10:00 +14°C° 0 mm 1 m/S 770 mmHg 58%
    11:00 +15°C° 0 mm 2 m/S 770 mmHg 53%
    12:00 +17°C° 0 mm 2 m/S 770 mmHg 49%
    13:00 +17°C° 0 mm 2 m/S 769 mmHg 48%
    14:00 +17°C° 0 mm 2 m/S 769 mmHg 47%
    15:00 +18°C° 0 mm 2 m/S 769 mmHg 46%
    16:00 +17°C° 0 mm 2 m/S 769 mmHg 50%
    17:00 +16°C° 0 mm 1 m/S 769 mmHg 55%
    18:00 +15°C° 0 mm 1 m/S 769 mmHg 60%
    19:00 +14°C° 0 mm 1 m/S 769 mmHg 63%
    20:00 +13°C° 0 mm 1 m/S 770 mmHg 66%
    21:00 +12°C° 0 mm 0 m/S 770 mmHg 69%
    22:00 +12°C° 0 mm 1 m/S 770 mmHg 71%
    23:00 +12°C° 0 mm 1 m/S 770 mmHg 73%

    übermorgen, 19 September, Donnerstag

    Zeit Temperatur Niederschläge Wind Luftdruck Luftfeuchtigkeit
    00:00 +12°C° 0 mm 1 m/S 770 mmHg 75%
    01:00 +11°C° 0 mm 1 m/S 770 mmHg 77%
    02:00 +11°C° 0 mm 1 m/S 770 mmHg 78%
    03:00 +11°C° 0 mm 1 m/S 770 mmHg 80%
    04:00 +11°C° 0 mm 1 m/S 770 mmHg 81%
    05:00 +10°C° 0 mm 1 m/S 770 mmHg 83%
    06:00 +10°C° 0 mm 1 m/S 770 mmHg 84%
    07:00 +12°C° 0 mm 1 m/S 770 mmHg 78%
    08:00 +14°C° 0 mm 1 m/S 771 mmHg 72%
    09:00 +16°C° 0 mm 1 m/S 771 mmHg 66%
    10:00 +18°C° 0 mm 1 m/S 771 mmHg 62%
    11:00 +20°C° 0 mm 1 m/S 771 mmHg 58%
    12:00 +21°C° 0 mm 1 m/S 771 mmHg 54%
    13:00 +21°C° 0 mm 1 m/S 770 mmHg 52%
    14:00 +22°C° 0 mm 1 m/S 770 mmHg 51%
    15:00 +22°C° 0 mm 1 m/S 770 mmHg 50%
    16:00 +21°C° 0 mm 1 m/S 770 mmHg 54%
    17:00 +20°C° 0 mm 1 m/S 770 mmHg 59%
    18:00 +18°C° 0 mm 1 m/S 769 mmHg 64%
    19:00 +16°C° 0 mm 2 m/S 770 mmHg 67%
    20:00 +15°C° 0 mm 2 m/S 770 mmHg 71%
    21:00 +13°C° 0 mm 3 m/S 770 mmHg 75%
    22:00 +14°C° 0 mm 2 m/S 770 mmHg 77%
    23:00 +13°C° 0 mm 2 m/S 770 mmHg 80%

    20 September, Freitag

    Zeit Temperatur Niederschläge Wind Luftdruck Luftfeuchtigkeit
    00:00 +13°C° 0 mm 2 m/S 769 mmHg 82%
    01:00 +13°C° 0 mm 2 m/S 769 mmHg 85%
    02:00 +12°C° 0 mm 2 m/S 769 mmHg 87%
    03:00 +12°C° 0 mm 2 m/S 769 mmHg 89%
    04:00 +12°C° 0 mm 2 m/S 769 mmHg 90%
    05:00 +12°C° 0 mm 2 m/S 769 mmHg 91%
    06:00 +10°C° 0 mm 2 m/S 768 mmHg 93%
    07:00 +13°C° 0 mm 2 m/S 768 mmHg 86%
    08:00 +14°C° 0 mm 3 m/S 768 mmHg 79%
    09:00 +16°C° 0 mm 3 m/S 768 mmHg 72%
    10:00 +18°C° 0 mm 4 m/S 768 mmHg 66%
    11:00 +19°C° 0 mm 4 m/S 767 mmHg 59%
    12:00 +20°C° 0 mm 5 m/S 767 mmHg 53%
    13:00 +20°C° 0 mm 5 m/S 766 mmHg 51%
    14:00 +20°C° 0 mm 5 m/S 765 mmHg 49%
    15:00 +20°C° 0 mm 6 m/S 765 mmHg 47%
    16:00 +19°C° 0 mm 5 m/S 764 mmHg 52%
    17:00 +16°C° 0 mm 5 m/S 764 mmHg 57%
    18:00 +15°C° 0 mm 5 m/S 763 mmHg 62%
    19:00 +14°C° 0 mm 5 m/S 763 mmHg 66%
    20:00 +13°C° 0 mm 4 m/S 763 mmHg 69%
    21:00 +13°C° 0 mm 4 m/S 763 mmHg 73%
    22:00 +13°C° 0 mm 4 m/S 762 mmHg 71%
    23:00 +13°C° 0 mm 4 m/S 762 mmHg 70%

    21 September, Samstag

    Zeit Temperatur Niederschläge Wind Luftdruck Luftfeuchtigkeit
    00:00 +13°C° 0 mm 4 m/S 761 mmHg 68%
    01:00 +13°C° 0 mm 4 m/S 761 mmHg 68%
    02:00 +12°C° 0 mm 4 m/S 760 mmHg 68%
    03:00 +12°C° 0 mm 4 m/S 760 mmHg 67%
    04:00 +11°C° 0 mm 4 m/S 759 mmHg 68%
    05:00 +11°C° 0 mm 4 m/S 759 mmHg 70%
    06:00 +11°C° 0 mm 4 m/S 758 mmHg 71%
    07:00 +12°C° 0 mm 4 m/S 758 mmHg 66%
    08:00 +14°C° 0 mm 5 m/S 758 mmHg 62%
    09:00 +15°C° 0 mm 6 m/S 758 mmHg 58%
    10:00 +17°C° 0 mm 6 m/S 757 mmHg 55%
    11:00 +20°C° 0 mm 6 m/S 757 mmHg 51%
    12:00 +21°C° 0 mm 6 m/S 756 mmHg 48%
    13:00 +22°C° 0 mm 6 m/S 756 mmHg 49%
    14:00 +23°C° 0 mm 6 m/S 755 mmHg 50%
    15:00 +24°C° 0 mm 6 m/S 755 mmHg 50%
    16:00 +23°C° 0 mm 5 m/S 755 mmHg 57%
    17:00 +21°C° 0 mm 4 m/S 754 mmHg 63%
    18:00 +20°C° 0 mm 3 m/S 754 mmHg 69%
    19:00 +19°C° 0.3 mm 3 m/S 754 mmHg 73%
    20:00 +19°C° 0.3 mm 3 m/S 754 mmHg 76%
    21:00 +18°C° 0.3 mm 3 m/S 754 mmHg 80%
    22:00 +18°C° 0.5 mm 3 m/S 754 mmHg 83%
    23:00 +18°C° 0.5 mm 3 m/S 754 mmHg 87%

    22 September, Sonntag

    Zeit Temperatur Niederschläge Wind Luftdruck Luftfeuchtigkeit
    00:00 +18°C° 0.5 mm 4 m/S 754 mmHg 90%
    01:00 +17°C° 0 mm 4 m/S 754 mmHg 91%
    02:00 +17°C° 0 mm 4 m/S 754 mmHg 91%
    03:00 +15°C° 0 mm 4 m/S 754 mmHg 92%
    04:00 +15°C° 0 mm 4 m/S 754 mmHg 93%
    05:00 +15°C° 0 mm 4 m/S 755 mmHg 94%
    06:00 +15°C° 0 mm 4 m/S 755 mmHg 94%
    07:00 +16°C° 0 mm 5 m/S 755 mmHg 89%
    08:00 +17°C° 0 mm 5 m/S 755 mmHg 83%
    09:00 +19°C° 0 mm 5 m/S 755 mmHg 77%
    10:00 +20°C° 0 mm 5 m/S 755 mmHg 73%
    11:00 +20°C° 0 mm 5 m/S 755 mmHg 69%
    12:00 +21°C° 0 mm 4 m/S 756 mmHg 65%
    13:00 +21°C° 0.1 mm 4 m/S 755 mmHg 65%
    14:00 +20°C° 0.1 mm 5 m/S 755 mmHg 65%
    15:00 +20°C° 0.1 mm 5 m/S 755 mmHg 66%
    16:00 +20°C° 0.1 mm 4 m/S 756 mmHg 70%
    17:00 +19°C° 0.1 mm 3 m/S 756 mmHg 74%
    18:00 +18°C° 0.1 mm 3 m/S 756 mmHg 78%
    19:00 +17°C° 0 mm 3 m/S 757 mmHg 81%
    20:00 +16°C° 0 mm 3 m/S 758 mmHg 84%
    21:00 +14°C° 0 mm 3 m/S 758 mmHg 87%
    22:00 +13°C° 0 mm 3 m/S 758 mmHg 89%
    23:00 +13°C° 0 mm 3 m/S 759 mmHg 90%
    Mehr zeigen